星链-34896(STARLINK-34896)

导读

STARLINK-34896是美国SpaceX星链互联网卫星星座的一员,于2025年10月31日发射入轨,属于星链项目低轨卫星组网的后续发射任务。它延续星链设计,承载卫星互联网通信载荷,依托近地轨道部署,可为全球范围提供高速低延迟的宽带互联服务,推进星链星座全球覆盖的组网进程。

基本信息
目录编号:
66288
目录名称:
STARLINK-34896
国际标识:
2025-247Z
轨道中心:
EARTH
卫星名称:
星链-34896
卫星全名:
星链-34896(STARLINK-34896)
卫星状态:
在轨 (已飞行225 天)
发射日期:
2025-10-31 UTC
国别 :
美国 (US)
星等 :
--
轨道信息
数据来源 国际轨道数据 AOE轨道数据
星历时间 2026-06-12T09:23:34+0800
1天前
查看轨道信息
2026-06-08T17:00:00+0800
5天前
查看轨道信息
半长轴 6840.827km 6840.891km
偏心率 0.0001182 0.0001331
轨道倾角 53.159° 53.157°
近地点辐角 90.256° 94.638°
升交点赤经 111.566° 128.783°
平近点角 269.858° 69.683°
近地点 461.881km 461.843km
远地点 463.499km 463.665km
周期 93.847分钟 93.849分钟
每日圈数 15.344045 15.343831
详细信息
固有亮度:
5
最大亮度:
2.5
卫星平台:
Starlink V1.0
覆盖范围:
全球
运营商:
太空探索技术公司
运营商所在国:
美国
制造商(研发单位):
太空探索技术公司
制造商所在国:
美国
使用方式:
暂无
卫星简介
Starlink 计划是 SpaceX 推出的全球卫星互联网项目,通过发射低轨道卫星,为全球尤其是偏远地区提供高速、低延迟的互联网服务。自 2019 年起,Starlink 已部署数千颗卫星,旨在缩小全球数字鸿沟,推动互联网普及。该项目还为军事、航空等行业提供通信支持,带来广泛经济效益。
2D轨道图
3D轨道图
轨道高度分析图
轨道倾角分析图
轨道综合分析图
查看轨道综合分析图